Simultaneous Nadir Overpasses (SNOs) Predictions

Prediction of SNOs between GOES-16 and METOP-C Satellite Orbit:

Table of predicted SNOs for the next 14.0 days since TLE Epoch: 4/16/2022
Index Date Time (GOES-16) GOES-16 Lat,Lon METOP-C Lat,Lon Distance(km) Time Diff (sec)
1 04/16/2022 14:29:15 0.07, -75.23 -0.03, -74.81 48.17 80
2 04/18/2022 02:50:54 -0.07, -75.22 -0.99, -79.40 476.64 80
3 04/19/2022 02:27:34 -0.06, -75.22 0.13, -74.41 92.97 80
4 04/20/2022 14:46:26 0.06, -75.25 0.91, -78.97 423.98 80
5 04/21/2022 14:28:26 0.06, -75.26 -0.22, -73.98 145.75 80
6 04/23/2022 02:47:26 -0.05, -75.25 -0.81, -78.57 378.89 80
7 04/24/2022 02:24:06 -0.05, -75.26 0.32, -73.58 191.16 80
8 04/25/2022 14:42:57 0.04, -75.30 0.70, -78.14 324.53 80
9 04/26/2022 14:24:58 0.04, -75.31 -0.43, -73.15 246.36 80
10 04/28/2022 02:43:57 -0.04, -75.32 -0.60, -77.74 276.40 80
11 04/29/2022 02:20:38 -0.04, -75.34 0.53, -72.75 294.91 80
